Year,Month,Day,Hour,Minute,Value (Times are PST for temperature in C)
2011,04,19,00,00,5.90
2011,04,19,00,01,5.90
2011,04,19,00,02,5.90
2011,04,19,00,03,5.90
2011,04,19,00,04,5.90
2011,04,19,00,05,5.90
2011,04,19,00,06,5.90
2011,04,19,00,07,5.90
2011,04,19,00,08,5.90
2011,04,19,00,09,5.90
2011,04,19,00,10,5.90
2011,04,19,00,11,5.90
2011,04,19,00,12,5.90
2011,04,19,00,13,5.90
2011,04,19,00,14,5.90
2011,04,19,00,15,5.90
2011,04,19,00,16,5.90
2011,04,19,00,17,5.90
2011,04,19,00,18,5.90
2011,04,19,00,19,5.90
2011,04,19,00,20,5.90
2011,04,19,00,21,5.90
2011,04,19,00,22,5.90
2011,04,19,00,23,5.90
2011,04,19,00,24,5.90
2011,04,19,00,25,5.90
2011,04,19,00,26,5.90
2011,04,19,00,27,5.90
2011,04,19,00,28,5.90
2011,04,19,00,29,5.80
2011,04,19,00,30,5.80
2011,04,19,00,31,5.80
2011,04,19,00,32,5.80
2011,04,19,00,33,5.80
2011,04,19,00,34,5.80
2011,04,19,00,35,5.80
2011,04,19,00,36,5.80
2011,04,19,00,37,5.80
2011,04,19,00,38,5.80
2011,04,19,00,39,5.80
2011,04,19,00,40,5.80
2011,04,19,00,41,5.80
2011,04,19,00,42,5.80
2011,04,19,00,43,5.80
2011,04,19,00,44,5.80
2011,04,19,00,45,5.80
2011,04,19,00,46,5.80
2011,04,19,00,47,5.80
2011,04,19,00,48,5.80
2011,04,19,00,49,5.80
2011,04,19,00,50,5.80
2011,04,19,00,51,5.80
2011,04,19,00,52,5.80
2011,04,19,00,53,5.80
2011,04,19,00,54,5.80
2011,04,19,00,55,5.80
2011,04,19,00,56,5.80
2011,04,19,00,57,5.80
2011,04,19,00,58,5.80
2011,04,19,00,59,5.80
2011,04,19,01,00,5.80
2011,04,19,01,01,5.80
2011,04,19,01,02,5.80
2011,04,19,01,03,5.80
2011,04,19,01,04,5.70
2011,04,19,01,05,5.70
2011,04,19,01,06,5.70
2011,04,19,01,07,5.70
2011,04,19,01,08,5.70
2011,04,19,01,09,5.70
2011,04,19,01,10,5.70
2011,04,19,01,11,5.80
2011,04,19,01,12,5.80
2011,04,19,01,13,5.80
2011,04,19,01,14,5.80
2011,04,19,01,15,5.70
2011,04,19,01,16,5.70
2011,04,19,01,17,5.70
2011,04,19,01,18,5.70
2011,04,19,01,19,5.70
2011,04,19,01,20,5.70
2011,04,19,01,21,5.70
2011,04,19,01,22,5.70
2011,04,19,01,23,5.70
2011,04,19,01,24,5.70
2011,04,19,01,25,5.70
2011,04,19,01,26,5.70
2011,04,19,01,27,5.70
2011,04,19,01,28,5.70
2011,04,19,01,29,5.70
2011,04,19,01,30,5.70
2011,04,19,01,31,5.60
2011,04,19,01,32,5.60
2011,04,19,01,33,5.60
2011,04,19,01,34,5.60
2011,04,19,01,35,5.60
2011,04,19,01,36,5.60
2011,04,19,01,37,5.60
2011,04,19,01,38,5.60
2011,04,19,01,39,5.50
2011,04,19,01,40,5.50
2011,04,19,01,41,5.50
2011,04,19,01,42,5.40
2011,04,19,01,43,5.40
2011,04,19,01,44,5.40
2011,04,19,01,45,5.40
2011,04,19,01,46,5.30
2011,04,19,01,47,5.30
2011,04,19,01,48,5.30
2011,04,19,01,49,5.20
2011,04,19,01,50,5.20
2011,04,19,01,51,5.20
2011,04,19,01,52,5.20
2011,04,19,01,53,5.20
2011,04,19,01,54,5.10
2011,04,19,01,55,5.10
2011,04,19,01,56,5.00
2011,04,19,01,57,5.00
2011,04,19,01,58,5.00
2011,04,19,01,59,5.00
2011,04,19,02,00,4.90
2011,04,19,02,01,4.90
2011,04,19,02,02,4.90
2011,04,19,02,03,4.90
2011,04,19,02,04,4.90
2011,04,19,02,05,4.90
2011,04,19,02,06,4.90
2011,04,19,02,07,4.90
2011,04,19,02,08,4.80
2011,04,19,02,09,4.80
2011,04,19,02,10,4.80
2011,04,19,02,11,4.80
2011,04,19,02,12,4.80
2011,04,19,02,13,4.80
2011,04,19,02,14,4.80
2011,04,19,02,15,4.70
2011,04,19,02,16,4.70
2011,04,19,02,17,4.70
2011,04,19,02,18,4.70
2011,04,19,02,19,4.70
2011,04,19,02,20,4.70
2011,04,19,02,21,4.70
2011,04,19,02,22,4.70
2011,04,19,02,23,4.70
2011,04,19,02,24,4.70
2011,04,19,02,25,4.70
2011,04,19,02,26,4.70
2011,04,19,02,27,4.70
2011,04,19,02,28,4.70
2011,04,19,02,29,4.70
2011,04,19,02,30,4.70
2011,04,19,02,31,4.80
2011,04,19,02,32,4.80
2011,04,19,02,33,4.80
2011,04,19,02,34,4.80
2011,04,19,02,35,4.90
2011,04,19,02,36,4.90
2011,04,19,02,37,4.90
2011,04,19,02,38,4.90
2011,04,19,02,39,4.90
2011,04,19,02,40,4.90
2011,04,19,02,41,4.90
2011,04,19,02,42,4.90
2011,04,19,02,43,4.90
2011,04,19,02,44,4.90
2011,04,19,02,45,4.90
2011,04,19,02,46,4.90
2011,04,19,02,47,4.90
2011,04,19,02,48,4.80
2011,04,19,02,49,4.80
2011,04,19,02,50,4.80
2011,04,19,02,51,4.80
2011,04,19,02,52,4.80
2011,04,19,02,53,4.80
2011,04,19,02,54,4.70
2011,04,19,02,55,4.70
2011,04,19,02,56,4.70
2011,04,19,02,57,4.70
2011,04,19,02,58,4.60
2011,04,19,02,59,4.60
2011,04,19,03,00,4.60
2011,04,19,03,01,4.50
2011,04,19,03,02,4.50
2011,04,19,03,03,4.50
2011,04,19,03,04,4.40
2011,04,19,03,05,4.30
2011,04,19,03,06,4.20
2011,04,19,03,07,4.10
2011,04,19,03,08,4.00
2011,04,19,03,09,4.00
2011,04,19,03,10,3.90
2011,04,19,03,11,3.80
2011,04,19,03,12,3.80
2011,04,19,03,13,3.70
2011,04,19,03,14,3.60
2011,04,19,03,15,3.50
2011,04,19,03,16,3.30
2011,04,19,03,17,3.30
2011,04,19,03,18,3.20
2011,04,19,03,19,3.10
2011,04,19,03,20,3.00
2011,04,19,03,21,2.90
2011,04,19,03,22,2.90
2011,04,19,03,23,2.80
2011,04,19,03,24,2.80
2011,04,19,03,25,2.70
2011,04,19,03,26,2.70
2011,04,19,03,27,2.70
2011,04,19,03,28,2.60
2011,04,19,03,29,2.60
2011,04,19,03,30,2.60
2011,04,19,03,31,2.60
2011,04,19,03,32,2.50
2011,04,19,03,33,2.50
2011,04,19,03,34,2.40
2011,04,19,03,35,2.40
2011,04,19,03,36,2.40
2011,04,19,03,37,2.40
2011,04,19,03,38,2.40
2011,04,19,03,39,2.30
2011,04,19,03,40,2.30
2011,04,19,03,41,2.30
2011,04,19,03,42,2.30
2011,04,19,03,43,2.30
2011,04,19,03,44,2.30
2011,04,19,03,45,2.30
2011,04,19,03,46,2.30
2011,04,19,03,47,2.30
2011,04,19,03,48,2.30
2011,04,19,03,49,2.30
2011,04,19,03,50,2.30
2011,04,19,03,51,2.30
2011,04,19,03,52,2.30
2011,04,19,03,53,2.30
2011,04,19,03,54,2.30
2011,04,19,03,55,2.30
2011,04,19,03,56,2.30
2011,04,19,03,57,2.20
2011,04,19,03,58,2.20
2011,04,19,03,59,2.20
2011,04,19,04,00,2.20
2011,04,19,04,01,2.20
2011,04,19,04,02,2.20
2011,04,19,04,03,2.20
2011,04,19,04,04,2.10
2011,04,19,04,05,2.10
2011,04,19,04,06,2.10
2011,04,19,04,07,2.00
2011,04,19,04,08,1.90
2011,04,19,04,09,1.90
2011,04,19,04,10,1.80
2011,04,19,04,11,1.80
2011,04,19,04,12,1.70
2011,04,19,04,13,1.70
2011,04,19,04,14,1.70
2011,04,19,04,15,1.70
2011,04,19,04,16,1.70
2011,04,19,04,17,1.60
2011,04,19,04,18,1.60
2011,04,19,04,19,1.60
2011,04,19,04,20,1.50
2011,04,19,04,21,1.50
2011,04,19,04,22,1.40
2011,04,19,04,23,1.40
2011,04,19,04,24,1.40
2011,04,19,04,25,1.30
2011,04,19,04,26,1.30
2011,04,19,04,27,1.30
2011,04,19,04,28,1.30
2011,04,19,04,29,1.30
2011,04,19,04,30,1.20
2011,04,19,04,31,1.20
2011,04,19,04,32,1.20
2011,04,19,04,33,1.20
2011,04,19,04,34,1.20
2011,04,19,04,35,1.10
2011,04,19,04,36,1.10
2011,04,19,04,37,1.10
2011,04,19,04,38,1.10
2011,04,19,04,39,1.10
2011,04,19,04,40,1.10
2011,04,19,04,41,1.10
2011,04,19,04,42,1.10
2011,04,19,04,43,1.10
2011,04,19,04,44,1.10
2011,04,19,04,45,1.10
2011,04,19,04,46,1.10
2011,04,19,04,47,1.00
2011,04,19,04,48,1.00
2011,04,19,04,49,1.00
2011,04,19,04,50,1.00
2011,04,19,04,51,1.00
2011,04,19,04,52,1.00
2011,04,19,04,53,1.00
2011,04,19,04,54,1.00
2011,04,19,04,55,1.00
2011,04,19,04,56,1.00
2011,04,19,04,57,1.00
2011,04,19,04,58,1.00
2011,04,19,04,59,1.00
2011,04,19,05,00,1.00
2011,04,19,05,01,1.10
2011,04,19,05,02,1.10
2011,04,19,05,03,1.10
2011,04,19,05,04,1.10
2011,04,19,05,05,1.10
2011,04,19,05,06,1.10
2011,04,19,05,07,1.10
2011,04,19,05,08,1.10
2011,04,19,05,09,1.10
2011,04,19,05,10,1.10
2011,04,19,05,11,1.20
2011,04,19,05,12,1.20
2011,04,19,05,13,1.20
2011,04,19,05,14,1.20
2011,04,19,05,15,1.20
2011,04,19,05,16,1.20
2011,04,19,05,17,1.20
2011,04,19,05,18,1.20
2011,04,19,05,19,1.20
2011,04,19,05,20,1.20
2011,04,19,05,21,1.20
2011,04,19,05,22,1.20
2011,04,19,05,23,1.20
2011,04,19,05,24,1.20
2011,04,19,05,25,1.20
2011,04,19,05,26,1.30
2011,04,19,05,27,1.30
2011,04,19,05,28,1.30
2011,04,19,05,29,1.30
2011,04,19,05,30,1.30
2011,04,19,05,31,1.40
2011,04,19,05,32,1.40
2011,04,19,05,33,1.50
2011,04,19,05,34,1.60
2011,04,19,05,35,1.60
2011,04,19,05,36,1.60
2011,04,19,05,37,1.70
2011,04,19,05,38,1.70
2011,04,19,05,39,1.80
2011,04,19,05,40,1.80
2011,04,19,05,41,1.90
2011,04,19,05,42,2.00
2011,04,19,05,43,2.10
2011,04,19,05,44,2.20
2011,04,19,05,45,2.30
2011,04,19,05,46,2.40
2011,04,19,05,47,2.50
2011,04,19,05,48,2.60
2011,04,19,05,49,2.60
2011,04,19,05,50,2.60
2011,04,19,05,51,2.70
2011,04,19,05,52,2.70
2011,04,19,05,53,2.60
2011,04,19,05,54,2.60
2011,04,19,05,55,2.60
2011,04,19,05,56,2.60
2011,04,19,05,57,2.60
2011,04,19,05,58,2.60
2011,04,19,05,59,2.60
2011,04,19,06,00,2.60
2011,04,19,06,01,2.60
2011,04,19,06,02,2.60
2011,04,19,06,03,2.60
2011,04,19,06,04,2.60
2011,04,19,06,05,2.70
2011,04,19,06,06,2.80
2011,04,19,06,07,2.80
2011,04,19,06,08,2.90
2011,04,19,06,09,2.90
2011,04,19,06,10,3.00
2011,04,19,06,11,3.00
2011,04,19,06,12,3.10
2011,04,19,06,13,3.10
2011,04,19,06,14,3.10
2011,04,19,06,15,3.10
2011,04,19,06,16,3.00
2011,04,19,06,17,3.00
2011,04,19,06,18,3.00
2011,04,19,06,19,2.90
2011,04,19,06,20,2.90
2011,04,19,06,21,2.90
2011,04,19,06,22,2.90
2011,04,19,06,23,2.90
2011,04,19,06,24,2.90
2011,04,19,06,25,2.90
2011,04,19,06,26,2.90
2011,04,19,06,27,3.00
2011,04,19,06,28,3.00
2011,04,19,06,29,3.10
2011,04,19,06,30,3.10
2011,04,19,06,31,3.20
2011,04,19,06,32,3.30
2011,04,19,06,33,3.40
2011,04,19,06,34,3.40
2011,04,19,06,35,3.50
2011,04,19,06,36,3.60
2011,04,19,06,37,3.70
2011,04,19,06,38,3.70
2011,04,19,06,39,3.70
2011,04,19,06,40,3.80
2011,04,19,06,41,3.80
2011,04,19,06,42,3.80
2011,04,19,06,43,3.70
2011,04,19,06,44,3.70
2011,04,19,06,45,3.70
2011,04,19,06,46,3.60
2011,04,19,06,47,3.60
2011,04,19,06,48,3.60
2011,04,19,06,49,3.60
2011,04,19,06,50,3.60
2011,04,19,06,51,3.60
2011,04,19,06,52,3.60
2011,04,19,06,53,3.60
2011,04,19,06,54,3.60
2011,04,19,06,55,3.50
2011,04,19,06,56,3.50
2011,04,19,06,57,3.40
2011,04,19,06,58,3.40
2011,04,19,06,59,3.40
2011,04,19,07,00,3.40
2011,04,19,07,01,3.50
2011,04,19,07,02,3.50
2011,04,19,07,03,3.60
2011,04,19,07,04,3.60
2011,04,19,07,05,3.70
2011,04,19,07,06,3.70
2011,04,19,07,07,3.80
2011,04,19,07,08,3.80
2011,04,19,07,09,3.90
2011,04,19,07,10,4.00
2011,04,19,07,11,4.00
2011,04,19,07,12,4.10
2011,04,19,07,13,4.20
2011,04,19,07,14,4.20
2011,04,19,07,15,4.20
2011,04,19,07,16,4.30
2011,04,19,07,17,4.40
2011,04,19,07,18,4.40
2011,04,19,07,19,4.50
2011,04,19,07,20,4.50
2011,04,19,07,21,4.60
2011,04,19,07,22,4.60
2011,04,19,07,23,4.60
2011,04,19,07,24,4.70
2011,04,19,07,25,4.70
2011,04,19,07,26,4.70
2011,04,19,07,27,4.70
2011,04,19,07,28,4.80
2011,04,19,07,29,4.80
2011,04,19,07,30,4.80
2011,04,19,07,31,4.90
2011,04,19,07,32,4.90
2011,04,19,07,33,4.90
2011,04,19,07,34,4.90
2011,04,19,07,35,5.00
2011,04,19,07,36,5.00
2011,04,19,07,37,5.10
2011,04,19,07,38,5.10
2011,04,19,07,39,5.10
2011,04,19,07,40,5.10
2011,04,19,07,41,5.20
2011,04,19,07,42,5.20
2011,04,19,07,43,5.20
2011,04,19,07,44,5.20
2011,04,19,07,45,5.30
2011,04,19,07,46,5.30
2011,04,19,07,47,5.30
2011,04,19,07,48,5.30
2011,04,19,07,49,5.40
2011,04,19,07,50,5.40
2011,04,19,07,51,5.40
2011,04,19,07,52,5.50
2011,04,19,07,53,5.50
2011,04,19,07,54,5.50
2011,04,19,07,55,5.60
2011,04,19,07,56,5.60
2011,04,19,07,57,5.60
2011,04,19,07,58,5.60
2011,04,19,07,59,5.70
2011,04,19,08,00,5.70
2011,04,19,08,01,5.70
2011,04,19,08,02,5.80
2011,04,19,08,03,5.80
2011,04,19,08,04,5.80
2011,04,19,08,05,5.80
2011,04,19,08,06,5.90
2011,04,19,08,07,5.90
2011,04,19,08,08,5.90
2011,04,19,08,09,6.00
2011,04,19,08,10,6.00
2011,04,19,08,11,6.10
2011,04,19,08,12,6.10
2011,04,19,08,13,6.20
2011,04,19,08,14,6.20
2011,04,19,08,15,6.20
2011,04,19,08,16,6.30
2011,04,19,08,17,6.30
2011,04,19,08,18,6.30
2011,04,19,08,19,6.40
2011,04,19,08,20,6.40
2011,04,19,08,21,6.40
2011,04,19,08,22,6.40
2011,04,19,08,23,6.40
2011,04,19,08,24,6.40
2011,04,19,08,25,6.50
2011,04,19,08,26,6.50
2011,04,19,08,27,6.50
2011,04,19,08,28,6.60
2011,04,19,08,29,6.60
2011,04,19,08,30,6.60
2011,04,19,08,31,6.60
2011,04,19,08,32,6.60
2011,04,19,08,33,6.60
2011,04,19,08,34,6.60
2011,04,19,08,35,6.70
2011,04,19,08,36,6.70
2011,04,19,08,37,6.70
2011,04,19,08,38,6.80
2011,04,19,08,39,6.80
2011,04,19,08,40,6.80
2011,04,19,08,41,6.90
2011,04,19,08,42,6.90
2011,04,19,08,43,6.90
2011,04,19,08,44,7.00
2011,04,19,08,45,7.00
2011,04,19,08,46,7.00
2011,04,19,08,47,7.00
2011,04,19,08,48,7.00
2011,04,19,08,49,7.00
2011,04,19,08,50,7.00
2011,04,19,08,51,7.00
2011,04,19,08,52,7.10
2011,04,19,08,53,7.10
2011,04,19,08,54,7.10
2011,04,19,08,55,7.10
2011,04,19,08,56,7.10
2011,04,19,08,57,7.10
2011,04,19,08,58,7.10
2011,04,19,08,59,7.10
2011,04,19,09,00,7.10
2011,04,19,09,01,7.10
2011,04,19,09,02,7.10
2011,04,19,09,03,7.10
2011,04,19,09,04,7.20
2011,04,19,09,05,7.20
2011,04,19,09,06,7.20
2011,04,19,09,07,7.20
2011,04,19,09,08,7.20
2011,04,19,09,09,7.20
2011,04,19,09,10,7.20
2011,04,19,09,11,7.20
2011,04,19,09,12,7.30
2011,04,19,09,13,7.30
2011,04,19,09,14,7.30
2011,04,19,09,15,7.30
2011,04,19,09,16,7.40
2011,04,19,09,17,7.40
2011,04,19,09,18,7.40
2011,04,19,09,19,7.50
2011,04,19,09,20,7.50
2011,04,19,09,21,7.50
2011,04,19,09,22,7.60
2011,04,19,09,23,7.70
2011,04,19,09,24,7.70
2011,04,19,09,25,7.70
2011,04,19,09,26,7.70
2011,04,19,09,27,7.70
2011,04,19,09,28,7.80
2011,04,19,09,29,7.80
2011,04,19,09,30,7.80
2011,04,19,09,31,7.80
2011,04,19,09,32,7.80
2011,04,19,09,33,7.90
2011,04,19,09,34,8.00
2011,04,19,09,35,8.00
2011,04,19,09,36,8.10
2011,04,19,09,37,8.10
2011,04,19,09,38,8.10
2011,04,19,09,39,8.10
2011,04,19,09,40,8.20
2011,04,19,09,41,8.20
2011,04,19,09,42,8.30
2011,04,19,09,43,8.30
2011,04,19,09,44,8.30
2011,04,19,09,45,8.30
2011,04,19,09,46,8.30
2011,04,19,09,47,8.30
2011,04,19,09,48,8.30
2011,04,19,09,49,8.30
2011,04,19,09,50,8.40
2011,04,19,09,51,8.40
2011,04,19,09,52,8.40
2011,04,19,09,53,8.40
2011,04,19,09,54,8.40
2011,04,19,09,55,8.40
2011,04,19,09,56,8.50
2011,04,19,09,57,8.50
2011,04,19,09,58,8.50
2011,04,19,09,59,8.60
2011,04,19,10,00,8.60
2011,04,19,10,01,8.60
2011,04,19,10,02,8.50
2011,04,19,10,03,8.50
2011,04,19,10,04,8.40
2011,04,19,10,05,8.40
2011,04,19,10,06,8.40
2011,04,19,10,07,8.40
2011,04,19,10,08,8.40
2011,04,19,10,09,8.50
2011,04,19,10,10,8.50
2011,04,19,10,11,8.50
2011,04,19,10,12,8.50
2011,04,19,10,13,8.60
2011,04,19,10,14,8.60
2011,04,19,10,15,8.60
2011,04,19,10,16,8.60
2011,04,19,10,17,8.60
2011,04,19,10,18,8.60
2011,04,19,10,19,8.70
2011,04,19,10,20,8.60
2011,04,19,10,21,8.60
2011,04,19,10,22,8.60
2011,04,19,10,23,8.60
2011,04,19,10,24,8.60
2011,04,19,10,25,8.60
2011,04,19,10,26,8.60
2011,04,19,10,27,8.60
2011,04,19,10,28,8.60
2011,04,19,10,29,8.60
2011,04,19,10,30,8.60
2011,04,19,10,31,8.60
2011,04,19,10,32,8.60
2011,04,19,10,33,8.60
2011,04,19,10,34,8.70
2011,04,19,10,35,8.70
2011,04,19,10,36,8.70
2011,04,19,10,37,8.80
2011,04,19,10,38,8.80
2011,04,19,10,39,8.80
2011,04,19,10,40,8.80
2011,04,19,10,41,8.90
2011,04,19,10,42,9.00
2011,04,19,10,43,9.00
2011,04,19,10,44,9.10
2011,04,19,10,45,9.00
2011,04,19,10,46,9.00
2011,04,19,10,47,9.00
2011,04,19,10,48,9.00
2011,04,19,10,49,9.10
2011,04,19,10,50,9.20
2011,04,19,10,51,9.30
2011,04,19,10,52,9.30
2011,04,19,10,53,9.20
2011,04,19,10,54,9.20
2011,04,19,10,55,9.20
2011,04,19,10,56,9.30
2011,04,19,10,57,9.30
2011,04,19,10,58,9.30
2011,04,19,10,59,9.30
2011,04,19,11,00,9.20
2011,04,19,11,01,9.20
2011,04,19,11,02,9.20
2011,04,19,11,03,9.30
2011,04,19,11,04,9.30
2011,04,19,11,05,9.20
2011,04,19,11,06,9.30
2011,04,19,11,07,9.30
2011,04,19,11,08,9.30
2011,04,19,11,09,9.30
2011,04,19,11,10,9.30
2011,04,19,11,11,9.20
2011,04,19,11,12,9.20
2011,04,19,11,13,9.30
2011,04,19,11,14,9.30
2011,04,19,11,15,9.30
2011,04,19,11,16,9.30
2011,04,19,11,17,9.30
2011,04,19,11,18,9.30
2011,04,19,11,19,9.20
2011,04,19,11,20,9.20
2011,04,19,11,21,9.20
2011,04,19,11,22,9.20
2011,04,19,11,23,9.30
2011,04,19,11,24,9.50
2011,04,19,11,25,9.60
2011,04,19,11,26,9.70
2011,04,19,11,27,9.70
2011,04,19,11,28,9.70
2011,04,19,11,29,9.80
2011,04,19,11,30,9.80
2011,04,19,11,31,9.80
2011,04,19,11,32,9.90
2011,04,19,11,33,9.80
2011,04,19,11,34,9.80
2011,04,19,11,35,9.80
2011,04,19,11,36,9.80
2011,04,19,11,37,9.90
2011,04,19,11,38,9.90
2011,04,19,11,39,9.90
2011,04,19,11,40,10.00
2011,04,19,11,41,10.10
2011,04,19,11,42,10.10
2011,04,19,11,43,10.10
2011,04,19,11,44,10.10
2011,04,19,11,45,9.90
2011,04,19,11,46,9.80
2011,04,19,11,47,9.80
2011,04,19,11,48,9.80
2011,04,19,11,49,9.80
2011,04,19,11,50,9.80
2011,04,19,11,51,9.80
2011,04,19,11,52,10.00
2011,04,19,11,53,10.10
2011,04,19,11,54,10.10
2011,04,19,11,55,10.10
2011,04,19,11,56,10.00
2011,04,19,11,57,10.00
2011,04,19,11,58,10.00
2011,04,19,11,59,10.10
2011,04,19,12,00,10.20
2011,04,19,12,01,10.20
2011,04,19,12,02,10.10
2011,04,19,12,03,9.90
2011,04,19,12,04,9.80
2011,04,19,12,05,9.70
2011,04,19,12,06,9.80
2011,04,19,12,07,9.80
2011,04,19,12,08,9.90
2011,04,19,12,09,9.90
2011,04,19,12,10,10.00
2011,04,19,12,11,10.00
2011,04,19,12,12,10.00
2011,04,19,12,13,9.90
2011,04,19,12,14,9.90
2011,04,19,12,15,9.80
2011,04,19,12,16,9.80
2011,04,19,12,17,9.80
2011,04,19,12,18,9.80
2011,04,19,12,19,9.80
2011,04,19,12,20,9.70
2011,04,19,12,21,9.70
2011,04,19,12,22,9.80
2011,04,19,12,23,9.90
2011,04,19,12,24,9.90
2011,04,19,12,25,9.80
2011,04,19,12,26,9.70
2011,04,19,12,27,9.60
2011,04,19,12,28,9.60
2011,04,19,12,29,9.60
2011,04,19,12,30,9.70
2011,04,19,12,31,9.60
2011,04,19,12,32,9.70
2011,04,19,12,33,9.60
2011,04,19,12,34,9.60
2011,04,19,12,35,9.60
2011,04,19,12,36,9.60
2011,04,19,12,37,9.70
2011,04,19,12,38,9.80
2011,04,19,12,39,9.80
2011,04,19,12,40,10.00
2011,04,19,12,41,10.10
2011,04,19,12,42,10.10
2011,04,19,12,43,10.20
2011,04,19,12,44,10.30
2011,04,19,12,45,10.40
2011,04,19,12,46,10.40
2011,04,19,12,47,10.40
2011,04,19,12,48,10.40
2011,04,19,12,49,10.40
2011,04,19,12,50,10.40
2011,04,19,12,51,10.30
2011,04,19,12,52,10.20
2011,04,19,12,53,10.10
2011,04,19,12,54,10.10
2011,04,19,12,55,10.00
2011,04,19,12,56,9.90
2011,04,19,12,57,9.80
2011,04,19,12,58,9.80
2011,04,19,12,59,9.90
2011,04,19,13,00,9.90
2011,04,19,13,01,10.10
2011,04,19,13,02,10.10
2011,04,19,13,03,10.00
2011,04,19,13,04,9.90
2011,04,19,13,05,9.90
2011,04,19,13,06,9.90
2011,04,19,13,07,9.90
2011,04,19,13,08,9.70
2011,04,19,13,09,9.70
2011,04,19,13,10,9.60
2011,04,19,13,11,9.50
2011,04,19,13,12,9.50
2011,04,19,13,13,9.50
2011,04,19,13,14,9.60
2011,04,19,13,15,9.70
2011,04,19,13,16,9.70
2011,04,19,13,17,9.80
2011,04,19,13,18,9.90
2011,04,19,13,19,10.00
2011,04,19,13,20,10.10
2011,04,19,13,21,10.00
2011,04,19,13,22,10.00
2011,04,19,13,23,10.00
2011,04,19,13,24,9.90
2011,04,19,13,25,9.90
2011,04,19,13,26,9.90
2011,04,19,13,27,9.90
2011,04,19,13,28,10.00
2011,04,19,13,29,10.10
2011,04,19,13,30,10.00
2011,04,19,13,31,9.90
2011,04,19,13,32,9.90
2011,04,19,13,33,9.90
2011,04,19,13,34,10.00
2011,04,19,13,35,10.00
2011,04,19,13,36,10.10
2011,04,19,13,37,10.20
2011,04,19,13,38,10.10
2011,04,19,13,39,10.00
2011,04,19,13,40,10.00
2011,04,19,13,41,9.90
2011,04,19,13,42,9.90
2011,04,19,13,43,9.90
2011,04,19,13,44,10.00
2011,04,19,13,45,10.00
2011,04,19,13,46,10.00
2011,04,19,13,47,10.10
2011,04,19,13,48,10.10
2011,04,19,13,49,10.10
2011,04,19,13,50,10.10
2011,04,19,13,51,10.30
2011,04,19,13,52,10.40
2011,04,19,13,53,10.50
2011,04,19,13,54,10.50
2011,04,19,13,55,10.50
2011,04,19,13,56,10.60
2011,04,19,13,57,10.60
2011,04,19,13,58,10.80
2011,04,19,13,59,10.80
2011,04,19,14,00,10.80
2011,04,19,14,01,10.90
2011,04,19,14,02,11.00
2011,04,19,14,03,10.90
2011,04,19,14,04,10.90
2011,04,19,14,05,10.90
2011,04,19,14,06,10.90
2011,04,19,14,07,10.90
2011,04,19,14,08,10.80
2011,04,19,14,09,10.80
2011,04,19,14,10,10.80
2011,04,19,14,11,10.70
2011,04,19,14,12,10.70
2011,04,19,14,13,10.60
2011,04,19,14,14,10.60
2011,04,19,14,15,10.60
2011,04,19,14,16,10.70
2011,04,19,14,17,10.70
2011,04,19,14,18,10.80
2011,04,19,14,19,10.70
2011,04,19,14,20,10.70
2011,04,19,14,21,10.60
2011,04,19,14,22,10.60
2011,04,19,14,23,10.60
2011,04,19,14,24,10.70
2011,04,19,14,25,10.80
2011,04,19,14,26,10.90
2011,04,19,14,27,10.80
2011,04,19,14,28,10.70
2011,04,19,14,29,10.60
2011,04,19,14,30,10.60
2011,04,19,14,31,10.50
2011,04,19,14,32,10.50
2011,04,19,14,33,10.40
2011,04,19,14,34,10.40
2011,04,19,14,35,10.50
2011,04,19,14,36,10.50
2011,04,19,14,37,10.40
2011,04,19,14,38,10.40
2011,04,19,14,39,10.30
2011,04,19,14,40,10.30
2011,04,19,14,41,10.30
2011,04,19,14,42,10.40
2011,04,19,14,43,10.40
2011,04,19,14,44,10.40
2011,04,19,14,45,10.40
2011,04,19,14,46,10.50
2011,04,19,14,47,10.60
2011,04,19,14,48,10.70
2011,04,19,14,49,10.70
2011,04,19,14,50,10.70
2011,04,19,14,51,10.70
2011,04,19,14,52,10.80
2011,04,19,14,53,10.70
2011,04,19,14,54,10.70
2011,04,19,14,55,10.80
2011,04,19,14,56,10.80
2011,04,19,14,57,10.90
2011,04,19,14,58,10.90
2011,04,19,14,59,10.90
2011,04,19,15,00,11.00
2011,04,19,15,01,11.10
2011,04,19,15,02,11.30
2011,04,19,15,03,11.20
2011,04,19,15,04,11.10
2011,04,19,15,05,10.90
2011,04,19,15,06,10.90
2011,04,19,15,07,10.80
2011,04,19,15,08,10.80
2011,04,19,15,09,10.80
2011,04,19,15,10,10.80
2011,04,19,15,11,10.60
2011,04,19,15,12,10.40
2011,04,19,15,13,10.20
2011,04,19,15,14,10.20
2011,04,19,15,15,10.20
2011,04,19,15,16,10.30
2011,04,19,15,17,10.30
2011,04,19,15,18,10.30
2011,04,19,15,19,10.40
2011,04,19,15,20,10.50
2011,04,19,15,21,10.50
2011,04,19,15,22,10.40
2011,04,19,15,23,10.40
2011,04,19,15,24,10.30
2011,04,19,15,25,10.30
2011,04,19,15,26,10.30
2011,04,19,15,27,10.40
2011,04,19,15,28,10.40
2011,04,19,15,29,10.50
2011,04,19,15,30,10.60
2011,04,19,15,31,10.70
2011,04,19,15,32,10.70
2011,04,19,15,33,10.70
2011,04,19,15,34,10.60
2011,04,19,15,35,10.60
2011,04,19,15,36,10.60
2011,04,19,15,37,10.60
2011,04,19,15,38,10.60
2011,04,19,15,39,10.60
2011,04,19,15,40,10.70
2011,04,19,15,41,10.70
2011,04,19,15,42,10.80
2011,04,19,15,43,10.80
2011,04,19,15,44,10.80
2011,04,19,15,45,10.80
2011,04,19,15,46,10.90
2011,04,19,15,47,10.90
2011,04,19,15,48,10.90
2011,04,19,15,49,10.70
2011,04,19,15,50,10.60
2011,04,19,15,51,10.50
2011,04,19,15,52,10.40
2011,04,19,15,53,10.50
2011,04,19,15,54,10.60
2011,04,19,15,55,10.70
2011,04,19,15,56,10.70
2011,04,19,15,57,10.70
2011,04,19,15,58,10.60
2011,04,19,15,59,10.60
2011,04,19,16,00,10.50
2011,04,19,16,01,10.60
2011,04,19,16,02,10.50
2011,04,19,16,03,10.50
2011,04,19,16,04,10.50
2011,04,19,16,05,10.50
2011,04,19,16,06,10.60
2011,04,19,16,07,10.70
2011,04,19,16,08,10.80
2011,04,19,16,09,10.90
2011,04,19,16,10,11.00
2011,04,19,16,11,11.00
2011,04,19,16,12,10.90
2011,04,19,16,13,10.80
2011,04,19,16,14,10.70
2011,04,19,16,15,10.60
2011,04,19,16,16,10.60
2011,04,19,16,17,10.60
2011,04,19,16,18,10.70
2011,04,19,16,19,10.80
2011,04,19,16,20,10.80
2011,04,19,16,21,10.80
2011,04,19,16,22,10.80
2011,04,19,16,23,10.80
2011,04,19,16,24,10.80
2011,04,19,16,25,10.80
2011,04,19,16,26,10.80
2011,04,19,16,27,10.80
2011,04,19,16,28,10.70
2011,04,19,16,29,10.60
2011,04,19,16,30,10.60
2011,04,19,16,31,10.60
2011,04,19,16,32,10.50
2011,04,19,16,33,10.50
2011,04,19,16,34,10.50
2011,04,19,16,35,10.50
2011,04,19,16,36,10.40
2011,04,19,16,37,10.40
2011,04,19,16,38,10.40
2011,04,19,16,39,10.40
2011,04,19,16,40,10.50
2011,04,19,16,41,10.50
2011,04,19,16,42,10.60
2011,04,19,16,43,10.70
2011,04,19,16,44,10.70
2011,04,19,16,45,10.70
2011,04,19,16,46,10.70
2011,04,19,16,47,10.70
2011,04,19,16,48,10.70
2011,04,19,16,49,10.70
2011,04,19,16,50,10.80
2011,04,19,16,51,10.80
2011,04,19,16,52,10.80
2011,04,19,16,53,10.80
2011,04,19,16,54,10.80
2011,04,19,16,55,10.80
2011,04,19,16,56,10.80
2011,04,19,16,57,10.80
2011,04,19,16,58,10.80
2011,04,19,16,59,10.80
2011,04,19,17,00,10.80
2011,04,19,17,01,10.80
2011,04,19,17,02,10.80
2011,04,19,17,03,10.80
2011,04,19,17,04,10.80
2011,04,19,17,05,10.80
2011,04,19,17,06,10.80
2011,04,19,17,07,10.80
2011,04,19,17,08,10.90
2011,04,19,17,09,10.90
2011,04,19,17,10,11.00
2011,04,19,17,11,10.90
2011,04,19,17,12,10.90
2011,04,19,17,13,10.90
2011,04,19,17,14,10.80
2011,04,19,17,15,10.80
2011,04,19,17,16,10.80
2011,04,19,17,17,10.80
2011,04,19,17,18,10.90
2011,04,19,17,19,10.90
2011,04,19,17,20,10.90
2011,04,19,17,21,10.80
2011,04,19,17,22,10.80
2011,04,19,17,23,10.80
2011,04,19,17,24,10.90
2011,04,19,17,25,10.90
2011,04,19,17,26,11.00
2011,04,19,17,27,11.10
2011,04,19,17,28,11.00
2011,04,19,17,29,11.00
2011,04,19,17,30,10.90
2011,04,19,17,31,10.90
2011,04,19,17,32,10.80
2011,04,19,17,33,10.80
2011,04,19,17,34,10.80
2011,04,19,17,35,10.80
2011,04,19,17,36,10.80
2011,04,19,17,37,10.80
2011,04,19,17,38,10.70
2011,04,19,17,39,10.70
2011,04,19,17,40,10.70
2011,04,19,17,41,10.70
2011,04,19,17,42,10.70
2011,04,19,17,43,10.70
2011,04,19,17,44,10.70
2011,04,19,17,45,10.70
2011,04,19,17,46,10.60
2011,04,19,17,47,10.60
2011,04,19,17,48,10.60
2011,04,19,17,49,10.60
2011,04,19,17,50,10.60
2011,04,19,17,51,10.60
2011,04,19,17,52,10.60